N2ZVN Weather Reports


Display with metric or nautical units.
time (UTC)temp
F
wind
direction
speed
MPH
gust
MPH
rain 1hr
in
rain 24hr
in
rain mn
in
humidity
%
barometer
mb
20260906205919 68 83 1.0 3.0 0.00 0.00 0.00 68 1020.4
20260906205415 68 99 0.0 2.0 0.00 0.00 0.00 66 1020.4
20260906204911 68 95 0.0 3.0 0.00 0.00 0.00 70 1020.4
20260906204410 68 93 0.0 0.0 0.00 0.00 0.00 70 1020.7
20260906203909 68 73 1.0 3.0 0.00 0.00 0.00 70 1020.5
20260906203405 68 103 3.0 4.0 0.00 0.00 0.00 67 1020.4
20260906202902 68 61 1.0 2.0 0.00 0.00 0.00 71 1020.4
20260906202402 68 2 2.0 2.0 0.00 0.00 0.00 70 1020.3
20260906201901 68 75 1.0 1.0 0.00 0.00 0.00 69 1020.4
20260906201356 68 111 2.0 3.0 0.00 0.00 0.00 69 1020.4
20260906200852 68 85 1.0 2.0 0.00 0.00 0.00 68 1020.5
20260906200348 68 118 0.0 1.0 0.00 0.00 0.00 69 1020.3
20260906195848 68 95 1.0 4.0 0.00 0.00 0.00 68 1020.5
20260906195344 68 24 0.0 1.0 0.00 0.00 0.00 71 1020.6
20260906194840 68 75 1.0 2.0 0.00 0.00 0.00 68 1020.5
20260906194336 68 61 1.0 2.0 0.00 0.00 0.00 72 1020.5
20260906193831 68 111 0.0 1.0 0.00 0.00 0.00 70 1020.5
20260906193326 68 96 2.0 4.0 0.00 0.00 0.00 71 1020.6
20260906192822 68 93 1.0 3.0 0.00 0.00 0.00 70 1020.6
20260906192321 68 72 1.0 3.0 0.00 0.00 0.00 70 1020.5
20260906191821 68 107 4.0 4.0 0.00 0.00 0.00 71 1020.5
20260906191316 68 353 2.0 4.0 0.00 0.00 0.00 70 1020.7
20260906190816 68 70 0.0 2.0 0.00 0.00 0.00 72 1020.9
20260906190315 68 322 0.0 2.0 0.00 0.00 0.00 70 1020.7
20260906185815 69 66 2.0 2.0 0.00 0.00 0.00 72 1020.7
20260906185314 68 129 1.0 7.0 0.00 0.00 0.00 72 1020.7
20260906184809 68 73 0.0 3.0 0.00 0.00 0.00 71 1020.7
20260906184304 68 268 1.0 1.0 0.00 0.00 0.00 71 1020.7
20260906183759 68 326 2.0 3.0 0.00 0.00 0.00 70 1020.7
20260906183255 68 88 1.0 3.0 0.00 0.00 0.00 73 1020.7
20260906182755 68 61 1.0 2.0 0.00 0.00 0.00 71 1020.9
20260906182251 69 109 1.0 4.0 0.00 0.00 0.00 71 1020.8
20260906181746 68 97 1.0 2.0 0.00 0.00 0.00 72 1020.8
20260906181242 68 88 1.0 4.0 0.00 0.00 0.00 74 1020.9
20260906180737 68 334 2.0 4.0 0.00 0.00 0.00 73 1020.8
20260906180232 68 63 1.0 3.0 0.00 0.00 0.00 74 1020.8
20260906175730 68 350 2.0 3.0 0.00 0.00 0.00 73 1020.7
20260906175226 68 56 1.0 4.0 0.00 0.00 0.00 75 1020.7
20260906174724 68 83 1.0 6.0 0.00 0.00 0.00 74 1020.6
20260906174224 68 87 1.0 8.0 0.00 0.00 0.00 74 1020.8
20260906173719 68 4 1.0 4.0 0.00 0.00 0.00 75 1020.6
20260906173215 68 96 1.0 1.0 0.00 0.00 0.00 76 1020.7
20260906172714 68 104 2.0 3.0 0.00 0.00 0.00 74 1020.9
20260906172210 69 328 2.0 4.0 0.00 0.00 0.00 74 1020.8
20260906171710 68 104 1.0 7.0 0.00 0.00 0.00 73 1020.8
20260906171205 68 178 3.0 8.0 0.00 0.00 0.00 73 1021.0
20260906170701 68 77 0.0 1.0 0.00 0.00 0.00 76 1020.9
20260906170201 68 36 1.0 2.0 0.00 0.00 0.00 75 1020.7
20260906165657 68 19 0.0 2.0 0.00 0.00 0.00 76 1020.7
20260906165158 69 70 1.0 4.0 0.00 0.00 0.00 74 1020.8
20260906164656 70 96 0.0 4.0 0.00 0.00 0.00 73 1020.8
20260906164152 69 354 1.0 2.0 0.00 0.00 0.00 73 1020.7
20260906163648 68 119 2.0 4.0 0.00 0.00 0.00 75 1020.5
20260906163144 68 100 3.0 4.0 0.00 0.00 0.00 73 1020.6
20260906162641 68 90 1.0 1.0 0.00 0.00 0.00 74 1020.5
20260906162140 68 54 1.0 1.0 0.00 0.00 0.00 75 1020.5
20260906161635 69 66 1.0 3.0 0.00 0.00 0.00 72 1020.6
20260906161134 69 332 1.0 1.0 0.00 0.00 0.00 74 1020.8
20260906160633 70 92 1.0 2.0 0.00 0.00 0.00 74 1020.7
20260906160132 70 93 1.0 6.0 0.00 0.00 0.00 75 1020.8
20260906155630 69 63 2.0 3.0 0.00 0.00 0.00 73 1020.7
20260906155126 69 93 4.0 6.0 0.00 0.00 0.00 73 1020.6
20260906154621 69 46 2.0 6.0 0.00 0.00 0.00 73 1020.5
20260906154120 68 80 1.0 2.0 0.00 0.00 0.00 75 1020.7
20260906153620 68 87 1.0 3.0 0.00 0.00 0.00 77 1020.5
20260906153114 69 87 3.0 3.0 0.00 0.00 0.00 76 1020.5
20260906152609 68 58 1.0 2.0 0.00 0.00 0.00 76 1020.5
20260906152103 68 89 1.0 3.0 0.00 0.00 0.00 77 1020.6
20260906151558 68 121 1.0 3.0 0.00 0.00 0.00 79 1020.4
20260906151054 68 23 0.0 3.0 0.00 0.00 0.00 78 1020.4
20260906150549 68 35 1.0 2.0 0.00 0.00 0.00 79 1020.5
20260906150044 68 173 0.0 4.0 0.00 0.00 0.00 79 1020.2
20260906145543 68 94 1.0 6.0 0.00 0.00 0.00 79 1020.1
20260906145038 68 111 0.0 0.0 0.00 0.00 0.00 81 1020.4
20260906144532 68 67 0.0 1.0 0.00 0.00 0.00 80 1020.2
20260906144028 68 97 1.0 6.0 0.00 0.00 0.00 79 1020.1
20260906143523 67 10 0.0 1.0 0.00 0.00 0.00 81 1020.3
20260906143020 67 12 1.0 2.0 0.00 0.00 0.00 80 1020.3
20260906142519 67 13 0.0 2.0 0.00 0.00 0.00 81 1020.4
20260906142015 67 85 1.0 3.0 0.00 0.00 0.00 82 1020.2
20260906141514 67 343 2.0 3.0 0.00 0.00 0.00 81 1020.3
20260906141009 68 84 2.0 3.0 0.00 0.00 0.00 81 1020.2
20260906140509 67 7 2.0 2.0 0.00 0.00 0.00 82 1020.2
20260906140008 67 20 1.0 1.0 0.00 0.00 0.00 83 1020.0
20260906135505 67 78 2.0 3.0 0.00 0.00 0.00 83 1020.1
20260906135001 67 78 0.0 1.0 0.00 0.00 0.00 83 1019.9
20260906134456 67 63 0.0 2.0 0.00 0.00 0.00 83 1019.8
20260906133956 67 353 1.0 3.0 0.00 0.00 0.00 84 1019.8
20260906133452 66 340 0.0 1.0 0.00 0.00 0.00 84 1019.7
20260906132948 67 353 2.0 4.0 0.00 0.00 0.00 85 1020.0
20260906132443 67 38 1.0 2.0 0.00 0.00 0.00 85 1019.8
20260906131938 68 83 1.0 3.0 0.00 0.00 0.00 84 1019.7
20260906131434 66 337 2.0 2.0 0.00 0.00 0.00 87 1019.6
20260906130929 66 77 1.0 2.0 0.00 0.00 0.00 88 1019.7
20260906130429 66 62 0.0 1.0 0.00 0.00 0.00 90 1019.8
20260906125929 66 73 1.0 1.0 0.00 0.00 0.00 90 1019.5
20260906125426 66 276 2.0 2.0 0.00 0.00 0.00 91 1019.4
20260906124925 66 349 0.0 3.0 0.00 0.00 0.00 91 1019.8
20260906124422 66 100 1.0 2.0 0.00 0.00 0.00 91 1019.4
20260906123916 66 53 0.0 2.0 0.00 0.00 0.00 92 1019.4
20260906123416 65 81 0.0 0.0 0.00 0.00 0.00 93 1019.4
20260906122915 65 86 0.0 1.0 0.00 0.00 0.00 95 1019.3
20260906122410 65 345 2.0 4.0 0.00 0.00 0.00 99 1019.5
20260906121907 64 26 1.0 1.0 0.00 0.00 0.00 99 1019.5
20260906121403 64 61 0.0 0.0 0.00 0.00 0.00 99 1019.5
20260906120859 63 89 0.0 0.0 0.00 0.00 0.00 99 1019.4
20260906120354 62 89 0.0 3.0 0.00 0.00 0.00 99 1019.5
20260906115850 61 17 0.0 0.0 0.00 0.00 0.00 99 1019.5
20260906115346 61 17 0.0 0.0 0.00 0.00 0.00 99 1019.3
20260906114845 60 17 0.0 0.0 0.00 0.00 0.00 99 1019.3
20260906114340 60 17 0.0 0.0 0.00 0.00 0.00 99 1019.1
20260906113835 60 17 0.0 0.0 0.00 0.00 0.00 99 1019.1
20260906113334 59 17 0.0 0.0 0.00 0.00 0.00 99 1018.9
20260906112830 59 17 0.0 0.0 0.00 0.00 0.00 99 1019.0
20260906112326 59 17 0.0 0.0 0.00 0.00 0.00 99 1018.9
20260906111826 59 17 0.0 0.0 0.00 0.00 0.00 99 1018.6
20260906111326 58 17 0.0 0.0 0.00 0.00 0.00 99 1018.6
20260906110821 58 17 0.0 0.0 0.00 0.00 0.00 99 1018.6
20260906110317 58 17 0.0 0.0 0.00 0.00 0.00 99 1018.5
20260906105815 58 17 0.0 0.0 0.00 0.00 0.00 99 1018.5
20260906105311 58 17 0.0 0.0 0.00 0.00 0.00 99 1018.4
20260906104807 58 17 0.0 0.0 0.00 0.00 0.00 99 1018.4
20260906104305 58 17 0.0 0.0 0.00 0.00 0.00 99 1018.0
20260906103804 58 17 0.0 0.0 0.00 0.00 0.00 99 1018.3
20260906103303 58 17 0.0 0.0 0.00 0.00 0.00 99 1018.2
20260906102759 58 17 0.0 0.0 0.00 0.00 0.00 99 1018.2
20260906102258 58 17 0.0 0.0 0.00 0.00 0.00 99 1018.0
20260906101754 58 17 0.0 0.0 0.00 0.00 0.00 99 1017.9
20260906101248 58 17 0.0 0.0 0.00 0.00 0.00 99 1018.1
20260906100744 58 17 0.0 0.0 0.00 0.00 0.00 99 1017.9
20260906100243 58 17 0.0 0.0 0.00 0.00 0.00 99 1018.0
20260906095738 58 17 0.0 0.0 0.00 0.00 0.00 99 1017.8
20260906095233 58 17 0.0 0.0 0.00 0.00 0.00 99 1017.9
20260906094732 58 17 0.0 0.0 0.00 0.00 0.00 99 1017.9
20260906094228 58 17 0.0 0.0 0.00 0.00 0.00 99 1017.7
20260906093724 58 17 0.0 0.0 0.00 0.00 0.00 99 1017.8
20260906093220 58 17 0.0 0.0 0.00 0.00 0.00 99 1017.7
20260906092715 58 17 0.0 0.0 0.00 0.00 0.00 99 1017.6
20260906092214 58 17 0.0 0.0 0.00 0.00 0.00 99 1017.5
20260906091711 59 17 0.0 0.0 0.00 0.00 0.00 99 1017.7
20260906091207 59 17 0.0 0.0 0.00 0.00 0.00 99 1017.7
20260906090703 59 17 0.0 0.0 0.00 0.00 0.00 99 1017.2
20260906090202 59 17 0.0 0.0 0.00 0.00 0.00 99 1017.6
20260906085701 59 17 0.0 0.0 0.00 0.00 0.00 99 1017.4
20260906085200 59 17 0.0 0.0 0.00 0.00 0.00 99 1017.3
20260906084655 59 17 0.0 0.0 0.00 0.00 0.00 99 1017.1
20260906084154 59 17 0.0 0.0 0.00 0.00 0.00 99 1017.1
20260906083649 59 17 0.0 0.0 0.00 0.00 0.00 99 1017.1
20260906083145 59 17 0.0 0.0 0.00 0.00 0.00 99 1016.9
20260906082640 59 17 0.0 0.0 0.00 0.00 0.00 99 1017.1
20260906082136 59 17 0.0 0.0 0.00 0.00 0.00 99 1016.8
20260906081632 59 17 0.0 0.0 0.00 0.00 0.00 99 1017.1
20260906081126 59 17 0.0 0.0 0.00 0.00 0.00 99 1016.7
20260906080623 59 17 0.0 0.0 0.00 0.00 0.00 99 1016.7
20260906080119 60 17 0.0 0.0 0.00 0.00 0.00 99 1016.7
20260906075618 60 17 0.0 0.0 0.00 0.00 0.00 99 1016.8
20260906075113 60 17 0.0 0.0 0.00 0.00 0.00 99 1016.9
20260906074608 60 17 0.0 0.0 0.00 0.00 0.00 99 1016.9
20260906074107 60 17 0.0 0.0 0.00 0.00 0.00 99 1016.6
20260906073602 60 17 0.0 0.0 0.00 0.00 0.00 99 1016.9
20260906073058 60 17 0.0 0.0 0.00 0.00 0.00 99 1016.7
20260906072552 60 17 0.0 0.0 0.00 0.00 0.00 99 1016.6
20260906072049 60 17 0.0 0.0 0.00 0.00 0.00 99 1016.5
20260906071545 60 17 0.0 0.0 0.00 0.00 0.00 99 1016.7
20260906071039 60 17 0.0 0.0 0.00 0.00 0.00 99 1016.6
20260906070536 60 17 0.0 0.0 0.00 0.00 0.00 98 1016.8
20260906070032 60 17 0.0 0.0 0.00 0.00 0.00 98 1016.8
20260906065531 60 17 0.0 0.0 0.00 0.00 0.00 98 1016.7
20260906065027 61 17 0.0 0.0 0.00 0.00 0.00 98 1016.6
20260906064523 61 17 0.0 0.0 0.00 0.00 0.00 99 1016.7
20260906064023 61 17 0.0 0.0 0.00 0.00 0.00 99 1016.7
20260906063518 61 17 0.0 0.0 0.00 0.00 0.00 98 1016.7
20260906063014 61 17 0.0 0.0 0.00 0.00 0.00 98 1016.8
20260906062509 61 17 0.0 0.0 0.00 0.00 0.00 98 1016.8
20260906062003 61 17 0.0 0.0 0.00 0.00 0.00 98 1016.9
20260906061459 61 17 0.0 0.0 0.00 0.00 0.00 98 1016.7
20260906060953 61 17 0.0 0.0 0.00 0.00 0.00 98 1016.5
20260906060450 61 17 0.0 0.0 0.00 0.00 0.00 98 1016.8
20260906055947 61 17 0.0 0.0 0.00 0.00 0.00 98 1016.7
20260906055443 61 17 0.0 0.0 0.00 0.00 0.00 98 1016.8
20260906054938 62 17 0.0 0.0 0.00 0.00 0.00 98 1016.8
20260906054432 62 17 0.0 0.0 0.00 0.00 0.00 98 1016.6
20260906053928 62 17 0.0 0.0 0.00 0.00 0.00 98 1016.8
20260906053424 62 17 0.0 0.0 0.00 0.00 0.00 98 1016.7
20260906052920 62 17 0.0 0.0 0.00 0.00 0.00 98 1016.6
20260906052416 62 17 0.0 0.0 0.00 0.00 0.00 98 1016.9
20260906051912 62 17 0.0 0.0 0.00 0.00 0.00 98 1016.7
20260906051412 62 17 0.0 0.0 0.00 0.00 0.00 98 1016.8
20260906050909 62 17 0.0 0.0 0.00 0.00 0.00 98 1016.7
20260906050408 62 17 0.0 0.0 0.00 0.00 0.00 98 1016.8
20260906045907 62 17 0.0 0.0 0.00 0.00 0.00 98 1016.8
20260906045406 62 17 0.0 0.0 0.00 0.00 0.00 98 1016.7
20260906044903 62 17 0.0 0.0 0.00 0.00 0.00 98 1016.6
20260906044403 62 17 0.0 0.0 0.00 0.00 0.00 98 1016.6
20260906043858 62 17 0.0 0.0 0.00 0.00 0.00 98 1016.5
20260906043354 62 17 0.0 0.0 0.00 0.00 0.00 98 1016.7
20260906042849 62 17 0.0 0.0 0.00 0.00 0.00 98 1016.6
20260906042348 62 17 0.0 0.0 0.00 0.00 0.00 98 1016.6
20260906041844 62 17 0.0 0.0 0.00 0.00 0.00 98 1016.4
20260906041339 62 17 0.0 0.0 0.00 0.00 0.00 98 1016.6
20260906040839 62 17 0.0 0.0 0.00 0.00 0.00 98 1016.3
20260906040334 62 17 0.0 0.0 0.00 0.00 0.00 98 1016.4
20260906035830 61 17 0.0 0.0 0.00 0.00 0.00 98 1016.4
20260906035325 62 17 0.0 0.0 0.00 0.00 0.00 98 1016.3
20260906034820 61 17 0.0 0.0 0.00 0.00 0.00 98 1016.3
20260906034315 61 17 0.0 0.0 0.00 0.00 0.00 98 1016.4
20260906033811 61 17 0.0 0.0 0.00 0.00 0.00 98 1016.2
20260906033310 61 17 0.0 0.0 0.00 0.00 0.00 98 1016.4
20260906032807 61 17 0.0 0.0 0.00 0.00 0.00 98 1016.5
20260906032305 61 17 0.0 0.0 0.00 0.00 0.00 98 1016.3
20260906031757 61 17 0.0 0.0 0.00 0.00 0.00 98 1016.4
20260906031253 61 17 0.0 0.0 0.00 0.00 0.00 98 1016.4
20260906030752 62 17 0.0 0.0 0.00 0.00 0.00 97 1016.3
20260906030248 62 17 0.0 0.0 0.00 0.00 0.00 97 1016.4
20260906025747 62 17 0.0 0.0 0.00 0.00 0.00 97 1016.2
20260906025241 62 17 0.0 0.0 0.00 0.00 0.00 97 1016.2
20260906024740 62 17 0.0 0.0 0.00 0.00 0.00 97 1016.2
20260906024239 62 17 0.0 0.0 0.00 0.00 0.00 97 1016.2
20260906023735 62 17 0.0 0.0 0.00 0.00 0.00 97 1016.2
20260906023231 62 17 0.0 0.0 0.00 0.00 0.00 97 1016.1
20260906022726 62 17 0.0 0.0 0.00 0.00 0.00 97 1016.1
20260906022221 62 17 0.0 0.0 0.00 0.00 0.00 97 1016.3
20260906021717 62 17 0.0 0.0 0.00 0.00 0.00 97 1016.2
20260906021216 62 17 0.0 0.0 0.00 0.00 0.00 97 1016.5
20260906020711 62 17 0.0 0.0 0.00 0.00 0.00 97 1016.0
20260906020205 62 17 0.0 0.0 0.00 0.00 0.00 96 1016.0
20260906015700 62 17 0.0 0.0 0.00 0.00 0.00 96 1016.0
20260906015159 63 17 0.0 0.0 0.00 0.00 0.00 96 1016.1
20260906014659 63 17 0.0 0.0 0.00 0.00 0.00 96 1016.0
20260906014155 63 17 0.0 0.0 0.00 0.00 0.00 96 1016.0
20260906013650 63 17 0.0 0.0 0.00 0.00 0.00 96 1015.8
20260906013146 63 17 0.0 0.0 0.00 0.00 0.00 96 1016.0
20260906012646 63 17 0.0 0.0 0.00 0.00 0.00 95 1016.0
20260906012145 63 17 0.0 0.0 0.00 0.00 0.00 95 1015.9
20260906011642 63 17 0.0 0.0 0.00 0.00 0.00 95 1015.7
20260906011136 64 17 0.0 0.0 0.00 0.00 0.00 95 1015.8
20260906010631 64 17 0.0 0.0 0.00 0.00 0.00 95 1015.9
20260906010128 64 17 0.0 0.0 0.00 0.00 0.00 94 1016.0
20260906005627 64 17 0.0 0.0 0.00 0.00 0.00 94 1016.0
20260906005127 64 17 0.0 0.0 0.00 0.00 0.00 93 1015.8
20260906004626 65 17 0.0 0.0 0.00 0.00 0.00 93 1015.8
20260906004121 65 17 0.0 0.0 0.00 0.00 0.00 93 1016.0
20260906003616 65 17 0.0 0.0 0.00 0.00 0.00 92 1015.6
20260906003113 66 17 0.0 0.0 0.00 0.00 0.00 91 1015.5
20260906002612 66 17 0.0 0.0 0.00 0.00 0.00 89 1015.7
20260906002108 66 17 0.0 0.0 0.00 0.00 0.00 90 1015.6
20260906001603 66 17 0.0 0.0 0.00 0.00 0.00 91 1015.7
20260906001103 67 17 0.0 0.0 0.00 0.00 0.00 87 1015.7
20260906000559 67 17 0.0 0.0 0.00 0.00 0.00 88 1015.7
20260906000054 67 17 0.0 0.0 0.00 0.00 0.00 87 1015.7
20260905235553 67 17 0.0 0.0 0.00 0.00 0.00 85 1015.8
20260905235048 68 17 0.0 0.0 0.00 0.00 0.00 84 1015.8
20260905234543 68 17 0.0 0.0 0.00 0.00 0.00 84 1015.8
20260905234039 69 17 0.0 0.0 0.00 0.00 0.00 82 1015.8
20260905233538 69 17 0.0 0.0 0.00 0.00 0.00 81 1015.7
20260905233039 69 17 0.0 0.0 0.00 0.00 0.00 79 1015.8
20260905232534 70 17 0.0 0.0 0.00 0.00 0.00 80 1015.9
20260905232030 70 17 0.0 0.0 0.00 0.00 0.00 75 1015.8
20260905231530 70 17 0.0 0.0 0.00 0.00 0.00 74 1015.8
20260905231026 71 17 0.0 1.0 0.00 0.00 0.00 74 1016.0
20260905230525 71 17 0.0 0.0 0.00 0.00 0.00 74 1016.0
20260905230024 71 17 0.0 1.0 0.00 0.00 0.00 73 1015.8
20260905225519 71 17 0.0 1.0 0.00 0.00 0.00 73 1015.8
20260905225015 71 17 0.0 0.0 0.00 0.00 0.00 73 1015.8
20260905224509 71 17 0.0 1.0 0.00 0.00 0.00 72 1015.9
20260905224008 71 17 0.0 0.0 0.00 0.00 0.00 71 1015.6
20260905223506 71 17 0.0 1.0 0.00 0.00 0.00 69 1015.7
20260905223002 71 17 1.0 1.0 0.00 0.00 0.00 68 1015.5
20260905222501 71 17 0.0 1.0 0.00 0.00 0.00 68 1015.6
20260905221956 71 17 0.0 0.0 0.00 0.00 0.00 69 1015.6
20260905221453 72 17 0.0 0.0 0.00 0.00 0.00 68 1015.5
20260905220949 72 1 0.0 1.0 0.00 0.00 0.00 67 1015.8
20260905220445 72 1 0.0 1.0 0.00 0.00 0.00 67 1015.4
20260905215944 72 1 0.0 1.0 0.00 0.00 0.00 67 1015.5
20260905215439 72 6 1.0 1.0 0.00 0.00 0.00 67 1015.4
20260905214936 72 16 1.0 2.0 0.00 0.00 0.00 67 1015.5
20260905214432 72 14 3.0 4.0 0.00 0.00 0.00 67 1015.5
20260905213931 72 14 0.0 2.0 0.00 0.00 0.00 67 1015.6
20260905213428 72 13 1.0 2.0 0.00 0.00 0.00 66 1015.4
20260905212923 72 14 2.0 1.0 0.00 0.00 0.00 66 1015.2
20260905212418 72 69 2.0 2.0 0.00 0.00 0.00 66 1015.4
20260905211917 72 52 0.0 1.0 0.00 0.00 0.00 66 1015.5
20260905211413 73 12 1.0 2.0 0.00 0.00 0.00 65 1015.2
20260905210909 72 6 2.0 2.0 0.00 0.00 0.00 67 1015.1
20260905210408 72 73 0.0 2.0 0.00 0.00 0.00 66 1015.2